Location: Brachbach
(49.1847°N, 9.7240°E)
Time: 18:04:08
(UTC+00:00)

Meteor 2-5 Rocket - Pass Details

Date: 17 August 2024
Orbit: 833 x 910 km, 81.2° (Epoch: 07 September)

Event Time Altitude Azimuth Distance (km) Brightness Sun altitude
Rises 23:58:05 0° 356° (N) 3,476 8.1 -27.1°
Reaches altitude 10° 00:01:09 10° 12° (NNE) 2,548 7.2 -27.0°
Maximum altitude 00:05:30 21° 61° (ENE) 1,878 5.9 -26.9°
Drops below altitude 10° 00:09:53 10° 110° (ESE) 2,572 6.1 -26.7°
Enters shadow 00:10:23 - 113° (ESE) 2,709 6.2 -26.7°
